Вернуться в каталог

STARLINK-32232

АктивенСвязьVLEO
NORAD 60431·PAYLOAD·🇺🇸 United States

Запущен Aug 12, 2024 с Cape Canaveral Space Force Station

Loading…

Ближайшие Пролёты (ближайшие 24 часа)

TLE

СвежийSource: CelesTrak SupGP

Эпоха: Sep 14, 2026, 13:42 UTC

1 60431C 24144G   26257.57131944 -.00039795  00000+0 -11753-2 0  2575
2 60431  53.1598  57.3090 0001106  87.6734 244.5826 15.34422783    15

Отслеживайте STARLINK-32232 в реальном времени с AllMySat

Download on the App Store